GFSFLT1_con_3kmhel_261.txt.gz
Helicity
92 12 -14 32 126 281 408 468 438 441 418 357 305 220 237 227 189 244 284 327 346 320 272 223 233 214 184 170 179 196 209 204
108 20 -29 9 -25 159 293 433 518 557 471 442 369 253 240 246 229 201 213 266 317 322 296 267 249 214 195 203 188 180 204 270
47 45 74 109 98 101 172 314 532 457 434 402 343 288 245 220 186 182 180 192 254 292 308 299 269 211 197 186 211 191 194 266
189 244 230 191 200 107 154 217 300 331 358 398 352 240 196 204 180 145 166 179 196 260 280 292 298 297 237 234 274 250 226 284
182 208 189 133 165 213 226 179 256 356 421 369 319 233 168 120 102 138 143 148 174 218 269 362 357 375 339 322 310 302 315 268
263 158 100 87 56 62 135 252 298 328 348 307 235 160 129 142 141 119 105 125 155 201 289 360 374 424 396 338 324 301 261 236
370 235 137 102 99 113 113 134 322 275 278 246 182 169 131 133 123 97 82 77 74 83 193 273 310 386 391 356 329 277 310 303
352 250 173 147 121 123 114 145 255 304 267 210 124 104 96 74 47 41 33 43 48 47 69 137 224 333 353 388 328 300 300 328
220 231 194 208 199 203 167 153 169 214 219 192 163 126 77 77 80 73 69 73 82 86 92 86 94 137 226 281 291 287 302 265
299 333 350 337 277 275 277 298 272 248 227 219 214 183 169 142 127 112 104 104 101 114 122 133 123 113 125 141 197 210 236 225
468 540 556 526 341 274 276 268 240 222 227 201 192 188 184 163 142 140 120 114 123 125 125 119 126 147 165 157 167 152 179 174
590 609 541 566 390 315 309 329 310 287 264 257 249 226 199 168 142 124 124 117 138 157 152 149 165 183 195 188 204 149 116 128
458 593 638 616 512 374 302 297 292 258 226 233 218 194 170 148 125 128 156 177 202 196 194 182 201 218 204 157 140 146 129 112
775 661 619 562 562 423 335 261 233 257 277 271 218 185 134 119 124 128 149 165 191 229 263 243 211 209 217 219 180 131 112 122
669 347 254 526 556 505 442 342 257 227 225 212 178 133 140 141 153 160 177 167 227 247 224 203 158 174 204 204 207 208 162 124
503 444 615 507 440 390 382 313 233 203 220 206 184 160 180 167 180 171 209 206 196 184 203 173 143 151 126 156 158 186 224 239
443 597 535 395 399 479 382 318 254 198 189 212 224 153 162 169 176 203 195 190 155 188 192 143 166 145 166 157 127 111 134 179
527 630 627 540 483 439 352 295 265 262 245 215 185 158 167 175 188 207 187 162 163 156 154 128 119 135 170 179 112 81 103 130
623 800 652 579 553 497 364 295 260 237 211 192 210 195 205 195 201 194 136 145 138 108 109 108 95 114 155 204 174 147 131 112

GFSFLT1_con_3kmhel_264.txt.gz
Helicity
108 68 103 108 245 300 454 489 403 401 376 328 256 253 221 227 245 253 268 255 245 233 199 192 213 186 179 191 186 197 205 188
63 30 27 94 100 162 306 430 423 447 455 473 416 324 299 259 253 247 260 252 267 265 232 218 255 222 214 231 225 190 161 202
52 81 23 35 68 83 234 316 427 490 459 482 397 306 248 236 237 234 239 266 277 268 267 269 268 228 200 255 266 218 212 294
168 215 223 206 158 150 148 246 339 405 459 493 450 372 317 244 189 181 229 263 274 254 248 251 264 296 266 278 281 273 253 237
285 318 344 290 235 191 167 190 224 270 446 462 425 352 253 174 133 124 140 139 146 177 202 259 271 318 314 319 356 369 319 250
322 352 349 285 200 152 124 183 236 293 351 389 390 311 207 174 138 107 125 129 120 123 156 209 253 286 294 300 298 364 374 294
295 380 322 220 161 152 145 146 185 293 348 384 308 219 189 142 124 103 85 80 79 77 90 142 178 213 257 244 282 332 344 300
356 407 337 229 189 197 172 172 197 246 305 310 247 175 134 123 102 88 83 73 82 119 105 110 125 145 165 191 195 221 254 292
433 429 297 247 256 291 324 291 272 256 285 302 228 213 235 210 187 161 151 132 117 116 115 116 118 117 113 115 158 174 158 185
333 376 303 342 321 361 374 387 352 363 403 367 362 316 267 238 214 175 135 121 108 109 122 155 191 197 198 173 167 153 142 145
145 184 265 432 504 499 486 444 393 363 363 325 299 276 251 223 196 172 148 128 128 137 161 199 223 242 279 274 244 230 216 182
200 218 686 610 536 498 489 463 389 362 323 313 319 303 273 252 246 220 198 192 184 182 180 201 240 269 279 270 246 249 247 205
200 509 613 611 555 523 477 500 484 406 378 373 358 344 324 300 256 215 166 149 161 149 157 193 239 257 240 265 240 220 228 205
358 642 486 383 521 519 498 451 482 470 422 373 346 313 295 260 209 162 157 140 123 156 167 210 222 220 241 244 224 202 178 161
253 459 395 506 463 429 438 399 378 399 411 384 338 284 218 174 145 132 120 88 119 147 202 232 265 241 223 210 181 177 177 167
119 364 456 516 487 198 317 327 341 363 356 338 289 215 166 148 138 99 77 108 154 210 257 281 249 251 183 138 145 160 151 157
157 338 500 503 480 524 583 490 477 478 429 403 258 186 161 126 89 85 106 157 194 225 235 220 205 168 217 192 97 83 111 118
221 401 505 625 694 636 676 627 473 430 465 337 208 163 130 92 90 129 189 217 241 265 224 165 156 177 225 210 161 109 83 79
419 537 686 753 645 586 517 459 484 430 326 211 152 116 100 101 132 169 221 251 255 225 191 180 128 140 167 188 150 87 75 72

GFSFLT1_con_3kmhel_267.txt.gz
Helicity
153 200 243 249 289 298 300 288 292 346 369 320 280 232 215 221 214 175 172 181 163 173 170 157 182 188 187 211 191 214 206 193
46 137 201 311 225 189 296 344 311 419 448 424 368 300 290 256 226 193 210 215 195 195 185 169 186 179 192 224 218 208 216 270
1 30 121 191 268 225 183 308 347 462 447 448 414 353 325 263 208 223 242 241 224 214 213 207 212 189 197 219 221 231 237 302
-24 18 31 174 221 292 243 246 314 361 390 415 464 441 395 307 228 190 206 239 238 228 207 196 204 223 217 240 266 274 230 239
-12 62 24 144 195 241 247 245 282 317 350 395 423 446 412 307 223 162 181 206 233 226 218 215 215 230 211 229 253 293 279 208
13 23 118 81 226 261 258 269 325 333 343 336 366 337 329 273 215 176 141 128 150 164 147 146 148 165 183 186 207 267 290 260
-38 41 120 136 174 277 246 235 265 317 322 342 316 336 372 257 163 137 122 129 121 57 53 81 94 118 128 136 155 176 202 235
-31 -21 170 223 189 239 256 199 260 277 274 301 273 297 284 198 173 155 174 158 156 161 160 169 150 123 108 95 105 127 164 204
-44 -129 131 162 173 267 293 208 243 290 303 297 302 284 280 278 242 255 241 200 175 169 178 196 206 206 202 201 200 225 233 213
98 -32 102 195 266 275 337 303 340 338 313 299 330 361 360 343 332 278 230 194 171 179 171 176 185 183 183 188 192 216 229 245
219 14 135 124 142 240 300 348 358 434 420 388 429 408 383 350 293 284 276 242 197 201 173 163 175 176 178 190 204 258 276 268
114 133 86 257 177 212 314 373 467 479 453 437 416 404 355 340 332 288 243 208 147 143 154 168 183 187 191 204 255 310 316 299
8 141 206 305 368 461 431 298 405 426 404 430 444 394 376 367 337 286 219 182 172 168 147 140 145 156 174 255 290 288 279 266
111 125 165 313 449 462 428 282 192 234 233 353 424 437 416 374 318 275 229 186 140 114 114 135 126 153 199 254 262 238 210 190
168 129 140 147 202 335 419 410 504 486 334 289 288 307 321 303 282 235 184 123 92 73 69 93 127 189 228 232 210 193 173 157
5 95 139 277 372 418 500 519 452 417 337 323 295 255 241 205 177 142 96 59 40 31 69 120 210 266 233 187 174 170 166 155
8 55 183 340 418 429 444 528 517 524 516 537 499 391 148 161 139 92 54 55 52 76 115 179 247 261 270 236 176 139 129 139
155 80 159 502 617 669 622 592 582 565 646 488 391 207 289 185 128 118 103 122 149 170 190 223 256 187 228 230 200 145 129 127
146 59 180 486 639 732 766 676 572 561 332 278 225 167 181 155 155 139 160 189 208 218 273 291 194 153 183 238 205 156 137 130

GFSFLT1_con_3kmhel_270.txt.gz
Helicity
102 87 146 230 318 362 323 359 270 280 302 294 262 226 246 252 248 248 211 203 217 203 178 172 194 178 154 170 157 185 176 160
15 56 108 107 161 263 383 456 327 391 368 366 332 309 318 288 304 339 243 199 194 191 165 171 172 160 158 175 176 172 191 199
11 12 18 64 100 170 251 367 394 387 390 381 380 336 330 349 345 340 292 222 174 172 166 168 174 157 155 185 202 205 203 261
19 -39 -4 3 53 93 133 204 409 478 351 384 372 379 320 311 368 358 342 265 170 178 165 171 181 186 177 182 208 221 193 193
46 69 26 52 46 103 112 150 234 361 391 392 383 387 319 292 293 324 375 225 149 134 156 162 172 202 170 173 196 186 187 156
140 86 10 90 15 68 92 120 186 260 415 388 412 349 263 288 287 198 211 179 148 154 183 152 142 162 137 129 132 145 166 155
165 122 -58 -112 -50 39 86 83 116 282 390 363 375 280 334 329 251 147 127 195 153 135 87 125 88 70 69 71 71 90 129 157
196 127 -76 -118 -33 -12 81 98 113 179 316 320 304 302 296 223 149 177 189 239 268 285 285 262 224 203 181 153 166 186 183 186
192 237 -13 -50 -53 -23 81 164 129 169 234 291 284 242 229 238 245 292 325 339 346 349 314 257 203 172 143 124 141 163 191 210
277 349 127 23 3 32 14 132 152 204 230 237 293 343 366 410 430 443 417 378 339 328 300 224 210 185 184 172 177 197 212 242
99 218 342 54 96 48 59 85 165 289 351 288 296 353 404 446 458 409 343 340 307 281 240 213 201 187 165 144 173 205 219 230
30 11 100 164 77 157 88 149 157 202 279 374 441 474 492 447 411 474 478 356 316 270 231 183 151 145 166 170 188 191 189 214
35 87 82 150 160 161 142 64 214 105 129 213 200 325 371 403 397 392 335 311 272 216 163 151 143 155 146 163 139 137 197 270
-25 39 101 130 66 112 152 225 210 277 232 331 310 187 210 239 272 269 266 211 172 143 132 138 137 119 92 94 117 139 220 281
7 -18 29 46 63 88 208 179 202 282 268 174 150 127 178 186 181 177 146 113 104 97 93 97 102 95 89 81 110 160 265 215
-6 59 0 -6 76 140 280 344 286 352 535 427 417 428 339 112 129 124 119 108 47 11 38 74 89 131 136 139 143 203 192 160
39 48 67 36 97 212 311 457 572 464 470 493 533 433 398 393 253 73 62 37 -28 -28 19 61 60 125 204 238 236 203 185 176
4 102 22 56 89 293 358 475 529 601 583 446 361 401 372 200 147 277 222 242 145 144 65 50 78 145 250 265 232 164 153 148
-9 75 87 -6 147 379 455 491 507 477 511 599 458 330 498 465 389 287 203 177 135 128 120 114 83 125 222 275 198 147 153 144

GFSFLT1_con_3kmhel_273.txt.gz
Helicity
54 42 55 46 52 133 225 289 282 288 280 247 226 209 203 222 209 188 200 218 177 184 155 130 104 89 82 90 82 90 101 92
64 84 127 77 53 49 122 200 313 303 317 330 303 255 257 250 260 271 243 264 203 193 183 191 202 151 104 97 108 99 114 112
92 125 153 161 121 76 43 87 193 315 309 362 307 227 238 244 258 301 344 365 248 251 197 169 104 122 81 133 126 144 132 140
126 92 107 110 125 116 48 32 95 226 273 269 271 197 139 181 249 311 327 376 340 235 201 170 139 151 102 78 109 120 132 141
219 199 159 160 122 80 23 7 25 102 259 271 335 286 253 269 246 278 254 304 348 289 194 164 151 122 150 84 96 134 126 86
129 125 118 52 70 29 -16 -40 18 39 148 262 311 240 200 209 196 217 174 130 178 206 160 166 167 88 96 94 69 83 87 67
223 240 208 146 123 75 38 2 40 16 61 185 227 205 190 233 218 154 117 90 147 144 116 78 112 116 90 60 71 66 70 67
171 134 145 153 97 115 71 66 65 18 25 88 147 173 158 108 110 119 101 146 232 235 199 249 326 297 259 227 205 177 166 173
137 138 126 122 151 98 143 86 51 82 43 102 123 106 95 106 115 173 352 548 614 614 490 418 321 235 251 203 158 140 161 171
107 88 78 61 38 44 51 116 111 137 175 224 283 291 313 347 413 507 579 570 499 541 511 336 298 281 225 214 155 141 137 138
93 69 80 77 51 69 28 43 99 110 166 228 302 384 438 469 505 524 521 422 231 311 156 122 229 243 215 154 114 127 131 136
53 23 -2 37 49 32 61 78 77 109 128 143 146 195 253 327 388 379 366 281 350 381 319 180 247 196 161 117 125 137 146 157
-53 -29 -57 -43 35 26 33 45 132 184 149 191 144 165 178 203 177 224 226 235 314 273 264 269 208 172 161 152 150 151 161 164
-95 -11 -21 -24 -30 -5 36 40 15 18 124 109 156 187 168 148 246 129 264 249 260 264 208 160 123 124 124 134 134 139 137 122
47 1 41 57 4 18 36 84 122 116 92 72 128 187 167 244 342 310 203 202 160 176 155 122 129 129 136 121 84 71 75 106
5 17 39 83 73 22 71 150 175 210 278 299 324 293 337 333 300 241 179 183 151 162 139 116 108 124 104 61 70 66 59 118
13 41 33 52 81 44 57 166 252 298 373 372 458 420 444 374 457 229 62 63 76 73 79 118 163 145 235 158 50 35 85 139
15 37 27 21 88 34 14 169 275 307 328 267 231 376 396 313 310 263 108 181 144 154 154 183 218 156 172 141 164 111 124 125
-15 -1 8 -8 19 32 86 200 268 365 384 362 466 594 298 247 287 282 226 207 260 229 212 177 147 161 202 215 108 108 138 124